Location: Linz
(48.3300°N, 14.3000°E)
Time: 11:40:37
(UTC+01:00)

YUBILEINY - Pass Details

Date: 26 February 2019
Orbit: 1479 x 1508 km, 82.5° (Epoch: 21 March)

Event Time Altitude Azimuth Distance (km) Brightness Sun altitude
Rises 06:06:56 0° 231° (SW) 4,591 ? -8.0°
Reaches altitude 10° 06:10:23 10° 243° (WSW) 3,616 ? -7.5°
Maximum altitude 06:17:34 28° 299° (WNW) 2,497 ? -6.3°
Drops below altitude 10° 06:24:51 10° 356° (N) 3,642 ? -5.1°
Sets 06:28:23 0° 8° (N) 4,630 ? -4.5°
